EHI
0 0 0 0 0 0 0 0 0 0 0 0 0 0 0 0 0 0 0 0 0 0 0 0 0 0 0 0 0 0 0 0 0 0 0 0 0 0 0 0 0 0 0 0
0 0 0 0 0 0 0 0 0 0 0 0 0 0 0 0 0 0 0 0 0 0 0 0 0 0 0 0 0 0 0 0 0 0 0 0 0 0 0 0 0 0 0 0
0 0 0 0 0 0 0 0 0 0 0 0 0 0 0 0 0 0 0 0 0 0 0 0 0 0 0 0 0 0 0 0 0 0 0 0 0 0 0 0 0 0 0 0
0 0 0 0 0 0 0 0 0 0 0 0 0 0 0 0 0 0 0 0 0 0 0 0 0 0 0 0 0 0 0 0 0 0 0 0 0 0 0 0 0 0 0 0
0 0 0 0 0 0 0 0 0 0 0 0 0 0 0 0 0 0 0 0 0 0 0 0 0 0 0 0 0 0 0 0 0 0 0 0 0 0 0 0 0 0 0 0
0 0 0 0 0 0 0 0 0 0 0 0 0 0 0 0 0 0 0 0 0 0 0 0 0 0 0 0 0 0 0 0 0 0 0 0 0 0 0 0 0 0 0 0
0 0 0 0 0 0 0 0 0 0 0 0 0 0 0 0 0 0 0 0 0 0 0 0 0 0 0 0 0 0 0 0 0 0 0 0 0 0 0 0 0 0 0 0
0 0 0 0 0 0 0 0 0 0 0 0 0 0 0 0 0 0 0 0 0 0 0 0 0 0 0 0 0 0 0 0 0 0 0 0 0 0 0 0 0 0 0 0
0 0 0 0 0 0 0 0 0 0 0 0 0 0 0 0 0 0 0 0 0 0 0 0 0 0 0 0 0 0 0 0 0 0 0 0 0 0 0 0 0 0 0 0
0 0 0 0 0 0 0 0 0 0 0 0 0 0 0 0 0 0 0 0 0 0 0 0 0 0 0 0 0 0 0 0 0 0 0 0 0 0 0 0 0 0 0 0
0 0 0 0 0 0 0 0 0 0 0 0 0 0 0 0 0 0 0 0 0 0 0 0 0 0 0 0 0 0 0 0 0 0 0 0 0 0 0 0 0 0 0 0
0 0 0 0 0 0 0 0 0 0 0 0 0 0 0 0 0 0 0 0 0 0 0 0 0 0 0 0 0 0 0 0 0 0 0 0 0 0 0 0 0 0 0 0
0 0 0 0 0 0 0 0 0 0 0 0 0 0 0 0 0 0 0 0 0 0 0 0 0 0 0 0 0 0 0 0 0 0 0 0 0 0 0 0 0 0 0 0
0 0 0 0 0 0 0 0 0 0 0 0 0 0 0 0 0 0 0 0 0 0 0 0 0 0 0 0 0 0 0 0 0 0 0 0 0 0 0 0 0 0 0 0
0 0 0 0 0 0 0 0 0 0 0 0 0 0 0 0 0 0 0 0 0 0 0 0 0 0 0 0 0 0 0 0 0 0 0 0 0 0 0 0 0 0 0 0
0 0 0 0 0 0 0 0 0 0 0 0 0 0 0 0 0 0 0 0 0 0 0 0 0 0 0 0 0 0 0 0 0 0 0 0 0 0 0 0 0 0 0 0
0 0 0 0 0 0 0 0 0 0 0 0 0 0 0 0 0 0 0 0 0 0 0 0 0 0 0 0 0 0 0 0 0 0 0 0 0 0 0 0 0 0 0 0
0 0 0 0 0 0 0 0 0 0 0 0 0 0 0 0 0 0 0 0 0 0 0 0 0 0 0 0 0 0 0 0 0 0 0 0 0 0 0 0 0 0 0 0
0 0 0 0 0 0 0 0 0 0 0 0 0 0 0 0 0 0 0 0 0 0 0 0 0 0 0 0 0 0 0 0 0 0 0 0 0 0 0 0 0 0 0 0
0 0 0 0 0 0 0 0 0 0 0 0 0 0 0 0 0 0 0 0 0 0 0 0 0 0 0 0 0 0 0 0 0 0 0 0 0 0 0 0 0 0 0 0
0 0 0 0 0 0 0 0 0 0 0 0 0 0 0 0 0 0 0 0 0 0 0 0 0 0 0 0 0 0 0 0 0 0 0 0 0 0 0 0 0 0 0 0
0 0 0 0 0 0 0 0 0 0 0 0 0 0 0 0 0 0 0 0 0 0 0 0 0 0 0 0 0 0 0 0 0 0 0 0 0 0 0 0 0 0 0 0
0 0 0 0 0 0 0 0 0 0 0 0 0 0 0 0 0 0 0 0 0 0 0 0 0 0 0 0 0 0 0 0 0 0 0 0 0 0 0 0 0 0 0 0
0 0 0 0 0 0 0 0 0 0 0 0 0 0 0 0 0 0 0 0 0 0 0 0 0 0 0 0 0 0 0 0 0 0 0 0 0 0 0 0 0 0 0 0
0 0 0 0 0 0 0 0 0 0 0 0 0 0 0 0 0 0 0 0 0 0 0 0 0 0 0 0 0 0 0 0 0 0 0 0 0 0 0 0 0 0 0 0
0 0 0 0 0 0 0 0 0 0 0 0 0 0 0 0 0 0 0 0 0 0 0 0 0 0 0 0 0 0 0 0 0 0 0 0 0 0 0 0 0 0 0 0
0 0 0 0 0 0 0 0 0 0 0 0 0 0 0 0 0 0 0 0 0 0 0 0 0 0 0 0 0 0 0 0 0 0 0 0 0 0 0 0 0 0 0 0
Wind_Speed
11 10 10 12 13 13 15 15 14 14 16 16 10 9 8 7 6 6 5 4 4 4 3 3 2 2 2 2 2 2 2 3 3 3 3 3 3 3 3 3 4 4 4 5
9 10 12 15 16 17 18 18 20 21 21 13 11 9 9 8 7 7 7 6 5 5 4 4 3 3 3 3 3 3 3 4 3 3 3 3 3 3 4 4 4 4 4 5
7 5 8 13 12 14 12 12 13 16 13 7 7 8 8 8 7 8 7 7 6 6 5 4 4 3 3 3 3 3 4 4 4 4 4 4 4 4 4 4 4 5 5 5
6 5 12 5 1 6 9 9 9 10 10 10 9 8 8 7 7 7 6 6 6 5 4 4 3 3 3 3 3 4 4 4 4 4 4 5 5 5 5 4 5 5 6 6
5 9 13 7 2 3 6 7 6 9 10 9 7 6 6 5 6 7 6 5 5 4 4 4 4 4 3 3 4 4 5 5 5 5 5 5 5 6 5 5 5 6 6 6
7 9 10 4 1 1 3 6 2 5 8 8 5 6 5 4 5 6 5 4 4 3 4 4 4 4 4 5 5 6 6 6 5 5 6 6 6 6 5 5 6 6 6 7
12 12 10 3 1 2 5 3 4 6 7 7 7 8 7 6 5 4 4 4 4 4 4 4 4 4 6 6 6 6 6 6 6 6 6 7 6 6 6 5 6 6 7 7
8 11 10 1 2 4 6 6 6 7 7 8 8 8 7 6 6 5 5 5 5 5 5 5 5 5 7 7 7 6 6 7 7 7 6 5 6 6 6 6 6 7 7 7
8 7 5 3 6 6 7 8 7 8 8 8 7 8 8 7 7 6 6 6 5 5 6 6 5 6 8 8 6 6 7 7 7 7 7 6 6 7 6 6 6 6 6 6
9 10 11 10 9 8 8 9 9 9 8 8 8 8 8 8 7 6 6 6 5 6 6 6 6 6 8 8 7 7 8 8 7 7 7 7 6 6 6 6 6 6 7 7
12 13 12 10 9 10 10 9 10 10 9 9 8 9 9 8 7 7 6 6 6 6 7 8 8 8 7 7 7 8 8 8 7 7 7 7 7 7 8 8 8 8 7 7
13 12 10 11 10 11 11 11 11 11 10 9 8 9 9 8 7 7 7 7 7 7 8 9 9 9 8 7 7 8 8 8 6 6 6 6 7 7 9 11 12 13 13 12
13 13 13 13 13 11 11 12 11 10 11 10 9 8 8 8 7 7 7 8 8 8 9 9 9 9 9 7 7 8 8 8 6 6 6 6 6 7 7 8 11 14 15 15
11 10 11 11 11 11 11 10 10 9 9 8 7 7 7 7 8 8 8 8 8 9 9 9 9 10 9 8 7 8 8 8 8 7 7 7 7 7 7 8 8 7 9 13
10 9 10 10 10 9 7 6 6 6 6 6 6 6 7 7 8 9 8 8 8 8 9 9 9 10 8 8 8 8 8 7 6 7 7 7 7 7 8 8 8 8 7 8
8 7 7 7 8 7 6 5 5 6 5 6 6 6 7 7 8 9 8 8 8 9 9 9 10 10 8 8 8 8 7 9 9 7 7 7 7 7 8 8 8 8 8 7
6 6 5 6 6 6 6 6 5 6 6 6 7 7 7 8 9 9 9 9 9 10 10 10 10 10 9 9 9 7 7 7 9 8 7 7 7 8 8 8 8 8 8 8
5 6 6 6 6 6 7 6 6 7 7 7 8 8 8 9 10 10 10 10 10 10 10 10 9 9 9 9 8 7 6 7 7 7 7 7 8 8 8 8 9 9 8 8
5 5 6 6 7 6 7 7 7 7 7 7 8 9 9 9 10 10 10 10 11 11 10 9 9 9 10 9 8 7 7 8 8 8 7 9 9 8 8 8 8 9 8 7
5 6 6 7 7 7 8 8 8 8 8 8 8 9 10 10 9 10 10 10 10 9 9 10 9 9 9 9 8 7 8 8 8 8 8 8 8 8 8 8 8 8 8 8
7 7 7 8 8 8 8 9 8 9 9 9 9 10 11 11 10 9 9 10 10 9 9 10 8 8 7 7 8 7 7 8 8 8 8 8 8 8 8 8 8 8 8 8
8 8 9 9 9 9 9 8 8 9 10 10 10 10 10 11 10 10 10 9 10 10 8 7 7 8 9 10 7 8 8 8 8 8 8 8 8 8 8 8 8 7 7 7
9 9 9 9 9 10 10 9 9 9 10 10 10 10 10 10 8 8 9 7 7 9 8 8 9 12 14 9 7 8 8 8 8 8 8 7 8 8 8 8 8 7 7 7
9 10 10 9 9 9 10 11 9 8 9 10 10 10 9 8 8 7 8 10 11 12 9 10 13 14 14 8 7 7 8 8 8 7 7 7 7 7 7 7 7 7 7 8
10 9 9 9 9 8 9 10 9 9 9 8 9 9 8 7 8 8 8 9 11 11 9 10 13 14 10 7 7 7 7 7 7 7 7 7 7 7 7 7 7 7 6 6
10 9 8 9 8 8 7 7 7 7 7 7 7 7 6 6 7 8 7 9 11 11 9 7 7 8 6 7 7 7 7 7 8 7 7 6 7 7 6 6 8 6 6 6
9 8 7 8 7 7 7 7 7 8 7 7 8 8 7 7 7 7 8 8 7 7 7 6 6 6 6 6 6 7 6 6 6 6 6 6 5 6 6 7 6 5 5 5
Wind_Direction
264 272 267 261 254 239 233 239 249 261 265 272 276 278 277 270 261 251 245 246 245 250 250 248 254 267 277 281 284 277 267 263 264 271 269 262 260 262 260 258 259 261 260 259
264 262 262 264 257 247 245 249 252 263 270 279 284 280 273 267 259 250 248 245 247 253 255 250 254 266 269 270 272 268 266 265 267 271 273 268 266 269 265 261 262 262 258 259
267 277 281 261 243 235 236 237 244 253 264 285 281 273 271 269 262 259 257 254 249 249 249 249 255 261 267 273 271 266 267 270 272 270 271 272 269 266 264 266 266 264 264 261
268 269 252 270 178 234 240 250 243 258 278 282 281 283 278 270 271 268 262 257 256 252 252 256 260 261 266 272 271 268 269 271 275 271 269 270 268 266 269 269 265 264 264 263
241 256 269 272 233 230 238 258 255 264 282 289 296 291 276 277 276 272 266 265 263 259 256 261 264 265 263 266 268 268 269 273 274 270 266 266 266 266 269 267 266 264 264 263
237 253 260 283 320 284 237 253 302 293 293 296 292 282 293 313 290 278 276 272 265 261 256 259 265 262 255 260 262 264 268 271 272 267 261 262 265 268 268 264 265 267 264 262
240 251 263 284 278 190 239 287 341 312 301 293 272 281 305 309 297 286 284 279 272 265 259 261 265 257 254 260 264 269 273 271 269 265 262 262 265 265 265 264 264 263 265 264
230 241 251 146 169 239 291 314 305 304 298 289 284 291 295 293 290 290 287 282 276 269 265 265 261 255 257 262 269 272 270 269 268 268 267 263 262 262 261 259 260 263 264 266
233 251 290 257 258 275 289 291 294 295 295 289 286 289 291 288 284 285 282 280 277 272 274 272 265 258 261 269 273 270 268 269 271 271 267 261 257 258 256 253 253 258 260 264
260 264 272 275 274 276 280 283 286 286 284 279 281 283 286 284 283 285 284 283 280 274 270 272 271 265 264 271 270 266 267 269 269 267 267 263 257 251 251 250 251 254 257 261
266 275 283 272 270 280 284 284 286 286 282 276 274 276 278 279 278 280 282 284 280 273 274 277 281 277 274 272 267 264 266 268 267 264 264 263 260 255 252 251 249 253 258 259
264 275 277 283 288 285 281 280 281 283 282 279 272 273 276 276 279 280 281 282 278 276 276 278 281 280 278 274 266 263 265 265 264 262 262 262 265 266 249 248 255 254 256 259
270 280 280 284 284 280 279 279 278 274 273 276 277 275 275 277 277 276 277 277 275 276 278 279 279 278 276 271 264 261 263 265 264 262 260 261 262 266 273 263 248 250 253 256
269 275 276 276 280 282 279 277 277 275 272 270 273 273 271 273 274 275 275 276 277 277 276 275 274 274 275 271 265 262 264 262 260 261 260 260 260 261 263 269 275 271 257 255
270 265 268 280 285 286 285 282 279 277 279 279 277 274 273 273 276 279 281 282 279 276 275 276 274 276 277 270 266 265 264 262 260 260 259 258 259 260 260 262 265 270 274 267
282 278 274 277 282 288 287 278 272 274 279 283 283 281 279 278 279 282 281 279 275 277 279 279 277 279 279 272 268 267 264 258 258 262 261 259 258 258 259 260 262 264 265 267
273 277 278 282 284 285 282 274 270 272 276 277 279 282 282 281 281 280 280 279 276 276 277 276 277 279 275 268 265 264 266 265 258 259 259 258 258 257 258 259 260 261 262 261
254 264 266 270 275 280 281 278 275 275 274 277 281 281 278 276 278 281 284 286 284 281 276 273 273 275 274 270 266 263 264 265 263 260 261 259 259 258 259 260 262 263 265 262
264 264 268 270 269 269 274 277 278 278 279 279 279 279 279 279 279 281 284 284 282 282 283 281 274 273 274 270 267 264 261 261 261 260 259 260 261 259 258 258 259 261 262 261
275 273 275 278 277 270 271 276 280 281 281 281 280 280 281 281 282 283 283 279 274 276 283 286 284 279 275 271 265 262 260 259 260 262 260 258 258 259 258 258 260 261 260 258
281 280 279 280 281 279 274 274 274 276 280 280 276 276 280 284 284 282 280 280 282 282 281 279 276 274 273 272 269 264 260 259 259 259 258 258 258 258 258 258 259 259 258 258
281 280 280 280 280 281 281 277 273 274 277 277 275 275 278 281 283 280 271 270 280 286 284 279 276 274 275 278 270 265 262 260 260 259 257 257 256 257 258 258 259 258 258 256
280 279 279 278 278 282 284 281 276 273 273 273 274 274 274 276 278 278 281 280 281 285 283 277 276 279 283 280 271 268 265 263 261 259 258 257 256 257 258 258 257 256 257 255
277 277 277 279 280 279 278 279 278 274 272 274 271 270 271 276 276 268 269 280 283 284 280 279 281 282 284 277 272 269 267 265 263 261 259 258 255 255 256 256 256 257 256 255
276 276 276 276 275 272 274 279 281 278 276 274 274 273 268 263 269 279 282 281 283 284 281 281 282 283 280 274 271 269 268 266 266 265 260 257 256 256 256 256 256 257 255 252
275 274 273 270 269 273 276 277 276 278 280 281 282 280 278 274 272 275 277 280 281 282 281 280 281 282 276 272 271 271 271 272 273 268 264 262 261 261 261 260 259 257 254 251
275 274 275 275 273 268 268 268 270 273 274 276 281 285 285 284 281 280 280 280 282 280 280 280 279 276 275 274 274 273 272 271 270 268 267 264 263 261 261 260 260 257 251 247